User: anonymous   Login
Location: Unspecified
(0.0000°N, 0.0000°E)
Time: 01:05:51
(UTC+00:00)
Language:

STARLINK-32043 - Orbit

View from above orbital plane
View from above orbital plane
View from above satellite
View from above satellite

Ground track
Ground track

The orbit is defined by the following mean orbital elements,

1 60135U          26145.47684007 +.00000000 +00000-0 +37182-5 0 00008
2 60135  53.1610 323.1833 0001157  95.3212 264.7921 15.30189351    09
Epoch (UTC): 25 May 2026 11:26:38
Eccentricity: 0.0001157
inclination: 53.1610°
perigee height: 474 km
apogee height: 476 km
right ascension of ascending node: 323.1833°
argument of perigee: 95.3212°
revolutions per day: 15.30189351
mean anomaly at epoch: 264.7921°

The dashed part of the orbit path shows where the satellite is in the earth's shadow,  

DLR